Time,TemperatureF,DewpointF,PressureIn,WindDirection,WindDirectionDegrees,WindSpeedMPH,WindSpeedGustMPH,Humidity,HourlyPrecipIn,Conditions,Clouds,dailyrainin,SoftwareType,DateUTC
2017-03-22 00:00:00,74.5,33.2,29.91,South,181,0.0,0.0,22,0.00,,SCT200,0.00,VWS V15.00,2017-03-22 07:00:00,
2017-03-22 00:05:00,74.3,34.1,29.91,South,182,0.0,0.0,23,0.00,,SCT200,0.00,VWS V15.00,2017-03-22 07:05:00,
2017-03-22 00:10:00,73.9,33.8,29.91,South,181,0.0,0.0,23,0.00,,SCT200,0.00,VWS V15.00,2017-03-22 07:10:00,
2017-03-22 00:15:00,73.8,33.7,29.91,South,182,0.0,0.0,23,0.00,,SCT200,0.00,VWS V15.00,2017-03-22 07:15:00,
2017-03-22 00:20:00,73.6,33.5,29.91,South,182,0.0,0.0,23,0.00,,SCT200,0.00,VWS V15.00,2017-03-22 07:20:00,
2017-03-22 00:25:00,73.4,33.4,29.91,South,181,0.0,0.0,23,0.00,,SCT200,0.00,VWS V15.00,2017-03-22 07:25:00,
2017-03-22 00:30:00,73.4,33.4,29.91,South,182,0.0,0.0,23,0.00,,SCT200,0.00,VWS V15.00,2017-03-22 07:30:00,
2017-03-22 00:35:00,73.2,34.3,29.91,South,182,0.0,0.0,24,0.00,,SCT200,0.00,VWS V15.00,2017-03-22 07:35:00,
2017-03-22 00:40:00,72.9,34.0,29.91,South,181,0.0,0.0,24,0.00,,SCT200,0.00,VWS V15.00,2017-03-22 07:40:00,
2017-03-22 00:45:00,72.9,34.0,29.91,South,181,0.0,0.0,24,0.00,,SCT200,0.00,VWS V15.00,2017-03-22 07:45:00,
2017-03-22 00:50:00,72.5,33.7,29.91,South,181,0.0,0.0,24,0.00,,SCT200,0.00,VWS V15.00,2017-03-22 07:50:00,
2017-03-22 00:55:00,72.5,33.7,29.91,South,182,0.0,0.0,24,0.00,,SCT200,0.00,VWS V15.00,2017-03-22 07:55:00,
2017-03-22 01:00:00,72.5,32.6,29.91,South,181,0.0,0.0,23,0.00,,SCT200,0.00,VWS V15.00,2017-03-22 08:00:00,
2017-03-22 01:05:00,72.5,32.6,29.91,South,181,0.0,0.0,23,0.00,,SCT200,0.00,VWS V15.00,2017-03-22 08:05:00,
2017-03-22 01:10:00,72.3,32.5,29.91,South,181,0.0,0.0,23,0.00,,SCT200,0.00,VWS V15.00,2017-03-22 08:10:00,
2017-03-22 01:15:00,72.1,32.3,29.91,South,181,0.0,0.0,23,0.00,,SCT200,0.00,VWS V15.00,2017-03-22 08:15:00,
2017-03-22 01:20:00,72.0,32.2,29.91,South,181,0.0,0.0,23,0.00,,SCT200,0.00,VWS V15.00,2017-03-22 08:20:00,
2017-03-22 01:25:00,72.0,33.2,29.91,South,182,0.0,0.0,24,0.00,,SCT200,0.00,VWS V15.00,2017-03-22 08:25:00,
2017-03-22 01:31:00,72.0,33.2,29.91,South,181,0.0,0.0,24,0.00,,SCT200,0.00,VWS V15.00,2017-03-22 08:31:00,
2017-03-22 01:36:00,71.8,33.1,29.91,South,182,0.0,0.0,24,0.00,,SCT200,0.00,VWS V15.00,2017-03-22 08:36:00,
2017-03-22 01:41:00,71.8,33.1,29.91,South,181,0.0,0.0,24,0.00,,SCT200,0.00,VWS V15.00,2017-03-22 08:41:00,
2017-03-22 01:46:00,71.2,33.6,29.91,South,182,0.0,0.0,25,0.00,,SCT200,0.00,VWS V15.00,2017-03-22 08:46:00,
2017-03-22 01:51:00,71.4,33.8,29.91,South,181,0.0,0.0,25,0.00,,SCT200,0.00,VWS V15.00,2017-03-22 08:51:00,
2017-03-22 01:56:00,71.4,34.8,29.91,South,181,0.0,0.0,26,0.00,,SCT200,0.00,VWS V15.00,2017-03-22 08:56:00,
2017-03-22 02:01:00,71.4,34.8,29.91,South,182,0.0,0.0,26,0.00,,SCT200,0.00,VWS V15.00,2017-03-22 09:01:00,
2017-03-22 02:06:00,71.2,34.6,29.91,South,181,0.0,0.0,26,0.00,,SCT200,0.00,VWS V15.00,2017-03-22 09:06:00,
2017-03-22 02:11:00,71.2,34.6,29.91,South,182,0.0,0.0,26,0.00,,SCT200,0.00,VWS V15.00,2017-03-22 09:11:00,
2017-03-22 02:16:00,71.1,34.5,29.91,South,182,0.0,0.0,26,0.00,,SCT200,0.00,VWS V15.00,2017-03-22 09:16:00,
2017-03-22 02:21:00,70.9,34.3,29.91,South,181,0.0,0.0,26,0.00,,SCT200,0.00,VWS V15.00,2017-03-22 09:21:00,
2017-03-22 02:26:00,70.7,34.2,29.91,South,182,0.0,0.0,26,0.00,,SCT200,0.00,VWS V15.00,2017-03-22 09:26:00,
2017-03-22 02:27:00,70.7,34.2,29.91,South,181,0.0,0.0,26,0.00,,SCT200,0.00,VWS V15.00,2017-03-22 09:27:00,
2017-03-22 02:32:00,70.2,33.7,29.91,South,182,0.0,0.0,26,0.00,,SCT200,0.00,VWS V15.00,2017-03-22 09:32:00,
2017-03-22 02:37:00,70.2,33.7,29.91,South,181,0.0,0.0,26,0.00,,SCT200,0.00,VWS V15.00,2017-03-22 09:37:00,
2017-03-22 02:42:00,70.3,33.9,29.91,South,182,0.0,0.0,26,0.00,,SCT200,0.00,VWS V15.00,2017-03-22 09:42:00,
2017-03-22 02:47:00,70.0,33.5,29.91,South,182,0.0,0.0,26,0.00,,SCT200,0.00,VWS V15.00,2017-03-22 09:47:00,
2017-03-22 02:52:00,69.8,33.4,29.88,South,182,0.0,0.0,26,0.00,,SCT200,0.00,VWS V15.00,2017-03-22 09:52:00,
2017-03-22 02:57:00,69.6,33.2,29.88,South,181,0.0,0.0,26,0.00,,SCT200,0.00,VWS V15.00,2017-03-22 09:57:00,
2017-03-22 03:02:00,69.4,33.1,29.88,South,181,0.0,0.0,26,0.00,,SCT200,0.00,VWS V15.00,2017-03-22 10:02:00,
2017-03-22 03:07:00,69.3,32.0,29.88,South,181,0.0,0.0,25,0.00,,SCT200,0.00,VWS V15.00,2017-03-22 10:07:00,
2017-03-22 03:12:00,69.1,32.8,29.88,South,182,0.0,0.0,26,0.00,,SCT200,0.00,VWS V15.00,2017-03-22 10:12:00,
2017-03-22 03:13:00,69.1,32.8,29.88,South,182,0.0,0.0,26,0.00,,SCT200,0.00,VWS V15.00,2017-03-22 10:13:00,
2017-03-22 03:18:00,68.9,32.6,29.88,South,182,0.0,0.0,26,0.00,,SCT200,0.00,VWS V15.00,2017-03-22 10:18:00,
2017-03-22 03:23:00,69.1,32.8,29.88,South,182,0.0,0.0,26,0.00,,SCT200,0.00,VWS V15.00,2017-03-22 10:23:00,
2017-03-22 03:28:00,68.7,32.5,29.88,South,182,0.0,0.0,26,0.00,,SCT200,0.00,VWS V15.00,2017-03-22 10:28:00,
2017-03-22 03:33:00,68.5,32.3,29.88,South,182,0.0,0.0,26,0.00,,SCT200,0.00,VWS V15.00,2017-03-22 10:33:00,
2017-03-22 03:38:00,68.4,32.2,29.88,South,182,0.0,0.0,26,0.00,,SCT200,0.00,VWS V15.00,2017-03-22 10:38:00,
2017-03-22 03:43:00,67.8,32.7,29.88,South,182,0.0,0.0,27,0.00,,SCT200,0.00,VWS V15.00,2017-03-22 10:43:00,
2017-03-22 03:48:00,67.5,33.2,29.88,NNE,33,0.0,0.0,28,0.00,,SCT200,0.00,VWS V15.00,2017-03-22 10:48:00,
2017-03-22 03:53:00,67.3,33.1,29.88,NNE,33,0.0,0.0,28,0.00,,SCT200,0.00,VWS V15.00,2017-03-22 10:53:00,
2017-03-22 03:58:00,67.5,33.2,29.88,NNE,33,0.0,0.0,28,0.00,,SCT200,0.00,VWS V15.00,2017-03-22 10:58:00,
2017-03-22 04:03:00,67.3,33.1,29.88,NNE,33,0.0,0.0,28,0.00,,SCT200,0.00,VWS V15.00,2017-03-22 11:03:00,
2017-03-22 04:08:00,67.1,32.0,29.88,NNE,33,0.0,0.0,27,0.00,,SCT200,0.00,VWS V15.00,2017-03-22 11:08:00,
2017-03-22 04:13:00,66.9,31.9,29.88,NNE,33,0.0,0.0,27,0.00,,SCT200,0.00,VWS V15.00,2017-03-22 11:13:00,
2017-03-22 04:18:00,66.9,31.9,29.88,NNE,33,0.0,0.0,27,0.00,,SCT200,0.00,VWS V15.00,2017-03-22 11:18:00,
2017-03-22 04:23:00,67.3,32.2,29.88,NNE,33,0.0,0.0,27,0.00,,SCT200,0.00,VWS V15.00,2017-03-22 11:23:00,
2017-03-22 04:28:00,67.8,32.7,29.88,NNE,33,0.0,0.0,27,0.00,,SCT200,0.00,VWS V15.00,2017-03-22 11:28:00,
2017-03-22 04:33:00,68.0,31.9,29.88,NNE,33,0.0,0.0,26,0.00,,SCT200,0.00,VWS V15.00,2017-03-22 11:33:00,
2017-03-22 04:38:00,68.0,31.9,29.88,NNE,33,0.0,0.0,26,0.00,,SCT200,0.00,VWS V15.00,2017-03-22 11:38:00,
2017-03-22 04:43:00,68.0,32.8,29.88,NNE,33,0.0,0.0,27,0.00,,SCT200,0.00,VWS V15.00,2017-03-22 11:43:00,
2017-03-22 04:48:00,67.8,32.7,29.88,NNW,338,0.0,0.0,27,0.00,,SCT200,0.00,VWS V15.00,2017-03-22 11:48:00,
2017-03-22 04:53:00,67.8,33.5,29.88,NNW,333,0.0,0.0,28,0.00,,SCT200,0.00,VWS V15.00,2017-03-22 11:53:00,
2017-03-22 04:58:00,67.8,33.5,29.88,NNW,333,0.0,0.0,28,0.00,,SCT200,0.00,VWS V15.00,2017-03-22 11:58:00,
2017-03-22 05:03:00,67.8,33.5,29.88,NNW,333,0.0,0.0,28,0.00,,SCT200,0.00,VWS V15.00,2017-03-22 12:03:00,
2017-03-22 05:08:00,67.6,33.4,29.88,NNW,333,0.0,0.0,28,0.00,,SCT200,0.00,VWS V15.00,2017-03-22 12:08:00,
2017-03-22 05:13:00,67.6,34.3,29.88,NNW,330,0.0,0.0,29,0.00,,SCT200,0.00,VWS V15.00,2017-03-22 12:13:00,
2017-03-22 05:15:00,67.6,34.3,29.88,NNW,330,0.0,0.0,29,0.00,,SCT200,0.00,VWS V15.00,2017-03-22 12:15:00,
2017-03-22 05:20:00,67.5,34.1,29.88,NNW,330,0.0,0.0,29,0.00,,SCT200,0.00,VWS V15.00,2017-03-22 12:20:00,
2017-03-22 05:25:00,67.3,34.0,29.88,NNW,333,0.0,0.0,29,0.00,,SCT200,0.00,VWS V15.00,2017-03-22 12:25:00,
2017-03-22 05:30:00,67.3,34.0,29.88,NNW,333,0.0,0.0,29,0.00,,SCT200,0.00,VWS V15.00,2017-03-22 12:30:00,
2017-03-22 05:35:00,67.3,34.0,29.88,NNW,333,0.0,0.0,29,0.00,,SCT200,0.00,VWS V15.00,2017-03-22 12:35:00,
2017-03-22 05:40:00,67.6,34.3,29.91,NNW,333,0.0,0.0,29,0.00,,SCT200,0.00,VWS V15.00,2017-03-22 12:40:00,
2017-03-22 05:45:00,67.8,34.4,29.91,NNW,333,0.0,0.0,29,0.00,,SCT200,0.00,VWS V15.00,2017-03-22 12:45:00,
2017-03-22 05:50:00,67.3,34.0,29.91,NNW,333,0.0,0.0,29,0.00,,SCT200,0.00,VWS V15.00,2017-03-22 12:50:00,
2017-03-22 05:55:00,67.5,34.1,29.91,NNW,333,0.0,0.0,29,0.00,,SCT200,0.00,VWS V15.00,2017-03-22 12:55:00,
2017-03-22 06:00:00,67.1,33.8,29.91,NNW,333,0.0,0.0,29,0.00,,SCT200,0.00,VWS V15.00,2017-03-22 13:00:00,
2017-03-22 06:05:00,67.1,33.8,29.91,NNW,333,0.0,0.0,29,0.00,,SCT200,0.00,VWS V15.00,2017-03-22 13:05:00,
2017-03-22 06:10:00,67.1,33.8,29.91,NNW,333,0.0,0.0,29,0.00,,SCT200,0.00,VWS V15.00,2017-03-22 13:10:00,
2017-03-22 06:15:00,66.9,33.7,29.91,NNW,333,0.0,0.0,29,0.00,,SCT200,0.00,VWS V15.00,2017-03-22 13:15:00,
2017-03-22 06:20:00,66.9,34.5,29.91,NNW,333,0.0,0.0,30,0.00,,SCT200,0.00,VWS V15.00,2017-03-22 13:20:00,
2017-03-22 06:25:00,66.9,34.5,29.91,NNW,333,0.0,0.0,30,0.00,,SCT200,0.00,VWS V15.00,2017-03-22 13:25:00,
2017-03-22 06:30:00,66.9,34.5,29.91,NNW,333,0.0,0.0,30,0.00,,SCT200,0.00,VWS V15.00,2017-03-22 13:30:00,
2017-03-22 06:35:00,66.7,34.3,29.91,NNW,333,0.0,0.0,30,0.00,,SCT200,0.00,VWS V15.00,2017-03-22 13:35:00,
2017-03-22 06:40:00,66.7,34.3,29.91,NNW,333,0.0,0.0,30,0.00,,SCT200,0.00,VWS V15.00,2017-03-22 13:40:00,
2017-03-22 06:45:00,66.7,34.3,29.91,NNW,333,0.0,0.0,30,0.00,,SCT200,0.00,VWS V15.00,2017-03-22 13:45:00,
2017-03-22 06:50:00,66.9,34.5,29.91,NNW,333,0.0,0.0,30,0.00,,SCT200,0.00,VWS V15.00,2017-03-22 13:50:00,
2017-03-22 06:55:00,66.9,34.5,29.91,NNW,333,0.0,0.0,30,0.00,,SCT200,0.00,VWS V15.00,2017-03-22 13:55:00,
2017-03-22 07:00:00,66.9,34.5,29.91,NNW,333,0.0,0.0,30,0.00,,SCT200,0.00,VWS V15.00,2017-03-22 14:00:00,
2017-03-22 07:05:00,67.1,34.7,29.91,NNW,333,0.0,0.0,30,0.00,,SCT200,0.00,VWS V15.00,2017-03-22 14:05:00,
2017-03-22 07:10:00,67.6,36.0,29.91,NNW,333,0.0,0.0,31,0.00,,SCT200,0.00,VWS V15.00,2017-03-22 14:10:00,
2017-03-22 07:15:00,68.0,35.4,29.91,NNW,333,0.0,0.0,30,0.00,,SCT200,0.00,VWS V15.00,2017-03-22 14:15:00,
2017-03-22 07:20:00,68.2,34.7,29.91,NNW,333,0.0,0.0,29,0.00,,SCT200,0.00,VWS V15.00,2017-03-22 14:20:00,
2017-03-22 07:25:00,68.0,34.6,29.91,NNW,336,0.0,0.0,29,0.00,,SCT200,0.00,VWS V15.00,2017-03-22 14:25:00,
2017-03-22 07:30:00,68.4,34.9,29.91,NNW,336,0.0,0.0,29,0.00,,SCT200,0.00,VWS V15.00,2017-03-22 14:30:00,
2017-03-22 07:35:00,68.5,35.0,29.91,NNW,338,0.0,0.0,29,0.00,,SCT200,0.00,VWS V15.00,2017-03-22 14:35:00,
2017-03-22 07:40:00,68.5,35.9,29.91,NNE,13,0.0,0.0,30,0.00,,SCT200,0.00,VWS V15.00,2017-03-22 14:40:00,
2017-03-22 07:45:00,68.4,34.9,29.91,North,359,3.4,6.2,29,0.00,,SCT200,0.00,VWS V15.00,2017-03-22 14:45:00,
2017-03-22 07:50:00,68.4,34.9,29.91,ENE,61,0.0,4.5,29,0.00,,SCT200,0.00,VWS V15.00,2017-03-22 14:50:00,
2017-03-22 07:55:00,68.5,35.0,29.91,NE,35,3.4,5.0,29,0.00,,SCT200,0.00,VWS V15.00,2017-03-22 14:55:00,
2017-03-22 08:00:00,68.5,35.0,29.91,NE,49,3.4,4.5,29,0.00,,SCT200,0.00,VWS V15.00,2017-03-22 15:00:00,
2017-03-22 08:05:00,68.7,35.2,29.91,ENE,65,3.9,3.9,29,0.00,,SCT200,0.00,VWS V15.00,2017-03-22 15:05:00,
2017-03-22 08:10:00,68.9,35.4,29.94,ENE,57,3.4,3.4,29,0.00,,SCT200,0.00,VWS V15.00,2017-03-22 15:10:00,
2017-03-22 08:15:00,69.6,36.0,29.94,ENE,58,0.0,4.5,29,0.00,,SCT200,0.00,VWS V15.00,2017-03-22 15:15:00,
2017-03-22 08:20:00,70.2,36.5,29.94,ENE,66,0.0,0.0,29,0.00,,SCT200,0.00,VWS V15.00,2017-03-22 15:20:00,
2017-03-22 08:25:00,70.7,36.9,29.94,ENE,63,0.0,0.0,29,0.00,,SCT200,0.00,VWS V15.00,2017-03-22 15:25:00,
2017-03-22 08:30:00,70.9,37.1,29.94,ENE,62,3.9,3.9,29,0.00,,SCT200,0.00,VWS V15.00,2017-03-22 15:30:00,
2017-03-22 08:35:00,71.2,37.4,29.94,ENE,65,4.5,5.0,29,0.00,,SCT200,0.00,VWS V15.00,2017-03-22 15:35:00,
2017-03-22 08:40:00,71.2,37.4,29.94,NE,50,5.6,5.6,29,0.00,,SCT200,0.00,VWS V15.00,2017-03-22 15:40:00,
2017-03-22 08:45:00,71.4,37.5,29.94,ENE,58,3.9,4.5,29,0.00,,SCT200,0.00,VWS V15.00,2017-03-22 15:45:00,
2017-03-22 08:50:00,71.4,37.5,29.94,NE,35,0.0,0.0,29,0.00,,SCT200,0.00,VWS V15.00,2017-03-22 15:50:00,
2017-03-22 08:55:00,71.6,37.7,29.94,ENE,63,4.5,4.5,29,0.00,,SCT200,0.00,VWS V15.00,2017-03-22 15:55:00,
2017-03-22 09:00:00,72.0,38.0,29.94,NE,45,3.4,3.4,29,0.00,,SCT200,0.00,VWS V15.00,2017-03-22 16:00:00,
2017-03-22 09:05:00,71.8,37.8,29.94,NE,45,2.8,2.8,29,0.00,,SCT200,0.00,VWS V15.00,2017-03-22 16:05:00,
2017-03-22 09:10:00,72.1,38.2,29.94,NNW,338,0.0,5.0,29,0.00,,SCT200,0.00,VWS V15.00,2017-03-22 16:10:00,
2017-03-22 09:15:00,72.7,37.7,29.94,NNE,25,6.2,6.2,28,0.00,,SCT200,0.00,VWS V15.00,2017-03-22 16:15:00,
2017-03-22 09:20:00,73.2,38.2,29.94,NE,52,3.9,7.3,28,0.00,,SCT200,0.00,VWS V15.00,2017-03-22 16:20:00,
2017-03-22 09:25:00,73.4,37.4,29.94,NE,54,3.4,4.5,27,0.00,,SCT200,0.00,VWS V15.00,2017-03-22 16:25:00,
2017-03-22 09:30:00,73.8,37.7,29.94,ENE,72,3.4,3.9,27,0.00,,SCT200,0.00,VWS V15.00,2017-03-22 16:30:00,
2017-03-22 09:35:00,73.9,37.9,29.94,NNE,31,3.9,7.8,27,0.00,,SCT200,0.00,VWS V15.00,2017-03-22 16:35:00,
2017-03-22 09:40:00,73.9,37.9,29.94,NNE,24,5.0,5.0,27,0.00,,SCT200,0.00,VWS V15.00,2017-03-22 16:40:00,
2017-03-22 09:45:00,74.5,38.3,29.94,NE,37,3.9,7.3,27,0.00,,SCT200,0.00,VWS V15.00,2017-03-22 16:45:00,
2017-03-22 09:50:00,74.8,38.7,29.94,NE,56,6.2,6.7,27,0.00,,SCT200,0.00,VWS V15.00,2017-03-22 16:50:00,
2017-03-22 09:56:00,74.5,38.3,29.94,ENE,58,3.9,7.3,27,0.00,,SCT200,0.00,VWS V15.00,2017-03-22 16:56:00,
2017-03-22 10:01:00,75.0,38.8,29.94,NE,36,0.0,7.8,27,0.00,,SCT200,0.00,VWS V15.00,2017-03-22 17:01:00,
2017-03-22 10:06:00,75.0,38.8,29.94,NE,34,3.9,6.7,27,0.00,,SCT200,0.00,VWS V15.00,2017-03-22 17:06:00,
2017-03-22 10:11:00,75.6,39.3,29.94,NE,46,7.8,7.8,27,0.00,,SCT200,0.00,VWS V15.00,2017-03-22 17:11:00,
2017-03-22 10:16:00,75.6,39.3,29.94,ENE,64,5.0,6.7,27,0.00,,SCT200,0.00,VWS V15.00,2017-03-22 17:16:00,
2017-03-22 10:21:00,75.6,39.3,29.94,NNE,30,5.0,6.7,27,0.00,,SCT200,0.00,VWS V15.00,2017-03-22 17:21:00,
2017-03-22 10:26:00,75.6,39.3,29.94,NNE,20,3.9,6.2,27,0.00,,SCT200,0.00,VWS V15.00,2017-03-22 17:26:00,
2017-03-22 10:31:00,75.6,39.3,29.94,NNE,29,4.5,5.6,27,0.00,,SCT200,0.00,VWS V15.00,2017-03-22 17:31:00,
2017-03-22 10:36:00,75.7,39.4,29.94,NE,48,5.0,5.0,27,0.00,,SCT200,0.00,VWS V15.00,2017-03-22 17:36:00,
2017-03-22 10:41:00,75.9,39.6,29.94,ENE,67,6.2,6.7,27,0.00,,SCT200,0.00,VWS V15.00,2017-03-22 17:41:00,
2017-03-22 10:46:00,76.5,40.0,29.94,NNE,20,0.0,6.7,27,0.00,,SCT200,0.00,VWS V15.00,2017-03-22 17:46:00,
2017-03-22 10:51:00,77.2,39.7,29.91,North,5,0.0,5.0,26,0.00,,SCT200,0.00,VWS V15.00,2017-03-22 17:51:00,
2017-03-22 10:56:00,77.5,40.0,29.91,ENE,58,3.9,6.2,26,0.00,,SCT200,0.00,VWS V15.00,2017-03-22 17:56:00,
2017-03-22 11:01:00,77.5,39.0,29.91,NE,40,3.4,7.3,25,0.00,,SCT200,0.00,VWS V15.00,2017-03-22 18:01:00,
2017-03-22 11:06:00,77.7,39.1,29.91,NNE,16,0.0,3.9,25,0.00,,SCT200,0.00,VWS V15.00,2017-03-22 18:06:00,
2017-03-22 11:11:00,77.9,39.3,29.91,NNE,24,3.4,3.4,25,0.00,,SCT200,0.00,VWS V15.00,2017-03-22 18:11:00,
2017-03-22 11:16:00,78.6,39.9,29.91,East,99,3.9,7.3,25,0.00,,SCT200,0.00,VWS V15.00,2017-03-22 18:16:00,
2017-03-22 11:21:00,79.5,40.7,29.91,ESE,120,3.9,3.9,25,0.00,,SCT200,0.00,VWS V15.00,2017-03-22 18:21:00,
2017-03-22 11:26:00,79.7,40.8,29.91,NW,320,0.0,0.0,25,0.00,,SCT200,0.00,VWS V15.00,2017-03-22 18:26:00,
2017-03-22 11:31:00,80.4,41.4,29.91,NE,37,5.0,5.0,25,0.00,,SCT200,0.00,VWS V15.00,2017-03-22 18:31:00,
2017-03-22 11:36:00,80.6,41.6,29.91,NNE,22,2.8,4.5,25,0.00,,SCT200,0.00,VWS V15.00,2017-03-22 18:36:00,
2017-03-22 11:41:00,81.1,42.0,29.91,NNW,339,0.0,0.0,25,0.00,,SCT200,0.00,VWS V15.00,2017-03-22 18:41:00,
2017-03-22 11:46:00,81.7,42.5,29.91,South,178,0.0,0.0,25,0.00,,SCT200,0.00,VWS V15.00,2017-03-22 18:46:00,
2017-03-22 11:51:00,82.6,42.2,29.91,ESE,110,3.9,3.9,24,0.00,,SCT200,0.00,VWS V15.00,2017-03-22 18:51:00,
2017-03-22 11:56:00,83.1,42.6,29.91,SSE,151,0.0,2.8,24,0.00,,SCT200,0.00,VWS V15.00,2017-03-22 18:56:00,
2017-03-22 12:01:00,83.3,42.8,29.91,SSE,166,0.0,5.0,24,0.00,,SCT200,0.00,VWS V15.00,2017-03-22 19:01:00,
2017-03-22 12:06:00,82.8,42.3,29.91,NE,36,2.8,3.9,24,0.00,,SCT200,0.00,VWS V15.00,2017-03-22 19:06:00,
2017-03-22 12:11:00,82.6,42.2,29.91,ESE,102,5.0,5.0,24,0.00,,SCT200,0.00,VWS V15.00,2017-03-22 19:11:00,
2017-03-22 12:16:00,83.3,42.8,29.91,NE,51,0.0,0.0,24,0.00,,SCT200,0.00,VWS V15.00,2017-03-22 19:16:00,
2017-03-22 12:18:00,83.3,42.8,29.91,NE,51,0.0,0.0,24,0.00,,SCT200,0.00,VWS V15.00,2017-03-22 19:18:00,
2017-03-22 12:23:00,84.2,43.5,29.88,WSW,250,0.0,0.0,24,0.00,,SCT200,0.00,VWS V15.00,2017-03-22 19:23:00,
2017-03-22 12:24:00,84.2,43.5,29.88,SSW,193,0.0,0.0,24,0.00,,SCT200,0.00,VWS V15.00,2017-03-22 19:24:00,
2017-03-22 12:26:00,84.0,43.4,29.88,WSW,252,0.0,0.0,24,0.00,,SCT200,0.00,VWS V15.00,2017-03-22 19:26:00,
2017-03-22 12:30:00,84.2,43.5,29.88,East,95,3.4,5.6,24,0.00,,SCT200,0.00,VWS V15.00,2017-03-22 19:30:00,
2017-03-22 12:31:00,84.4,43.7,29.88,East,79,4.5,5.6,24,0.00,,SCT200,0.00,VWS V15.00,2017-03-22 19:31:00,
2017-03-22 12:35:00,85.1,44.3,29.88,SSE,156,3.9,5.0,24,0.00,,SCT200,0.00,VWS V15.00,2017-03-22 19:35:00,
2017-03-22 12:37:00,84.9,44.1,29.88,SSW,196,0.0,0.0,24,0.00,,SCT200,0.00,VWS V15.00,2017-03-22 19:37:00,
2017-03-22 12:40:00,84.9,44.1,29.88,South,189,3.9,5.0,24,0.00,,SCT200,0.00,VWS V15.00,2017-03-22 19:40:00,
2017-03-22 12:45:00,84.9,44.1,29.88,West,279,0.0,5.0,24,0.00,,SCT200,0.00,VWS V15.00,2017-03-22 19:45:00,
2017-03-22 12:50:00,85.1,44.3,29.88,SW,219,4.5,4.5,24,0.00,,SCT200,0.00,VWS V15.00,2017-03-22 19:50:00,
2017-03-22 12:55:00,84.9,44.1,29.88,WSW,237,2.8,7.8,24,0.00,,SCT200,0.00,VWS V15.00,2017-03-22 19:55:00,
2017-03-22 12:57:00,84.7,44.0,29.88,SSW,195,0.0,7.8,24,0.00,,SCT200,0.00,VWS V15.00,2017-03-22 19:57:00,
2017-03-22 13:02:00,84.6,43.8,29.88,SSW,206,4.5,6.7,24,0.00,,SCT200,0.00,VWS V15.00,2017-03-22 20:02:00,
2017-03-22 13:06:00,84.7,44.0,29.88,ESE,103,3.4,6.7,24,0.00,,SCT200,0.00,VWS V15.00,2017-03-22 20:06:00,
2017-03-22 13:11:00,85.6,44.7,29.88,South,180,0.0,5.0,24,0.00,,SCT200,0.00,VWS V15.00,2017-03-22 20:11:00,
2017-03-22 13:16:00,86.0,43.9,29.88,South,190,0.0,6.7,23,0.00,,SCT200,0.00,VWS V15.00,2017-03-22 20:16:00,
2017-03-22 13:21:00,86.0,43.9,29.85,South,174,3.9,5.0,23,0.00,,SCT200,0.00,VWS V15.00,2017-03-22 20:21:00,
2017-03-22 13:26:00,86.4,44.2,29.85,ESE,108,3.9,7.3,23,0.00,,SCT200,0.00,VWS V15.00,2017-03-22 20:26:00,
2017-03-22 13:31:00,86.5,44.4,29.85,South,182,0.0,6.2,23,0.00,,SCT200,0.00,VWS V15.00,2017-03-22 20:31:00,
2017-03-22 13:35:00,86.9,44.7,29.85,SSW,203,3.9,5.0,23,0.00,,SCT200,0.00,VWS V15.00,2017-03-22 20:35:00,
2017-03-22 13:36:00,86.9,44.7,29.85,SSW,199,6.7,6.7,23,0.00,,SCT200,0.00,VWS V15.00,2017-03-22 20:36:00,
2017-03-22 13:41:00,86.4,44.2,29.85,West,273,3.4,6.7,23,0.00,,SCT200,0.00,VWS V15.00,2017-03-22 20:41:00,
2017-03-22 13:46:00,85.6,44.7,29.85,WNW,302,10.1,10.1,24,0.00,,SCT200,0.00,VWS V15.00,2017-03-22 20:46:00,
2017-03-22 13:51:00,84.4,43.7,29.85,West,267,5.0,7.8,24,0.00,,SCT200,0.00,VWS V15.00,2017-03-22 20:51:00,
2017-03-22 13:56:00,83.8,44.3,29.85,West,271,5.0,9.5,25,0.00,,SCT200,0.00,VWS V15.00,2017-03-22 20:56:00,
2017-03-22 14:01:00,84.0,44.5,29.85,WSW,242,3.4,5.0,25,0.00,,SCT200,0.00,VWS V15.00,2017-03-22 21:01:00,
2017-03-22 14:06:00,84.9,44.1,29.85,West,263,3.4,6.7,24,0.00,,SCT200,0.00,VWS V15.00,2017-03-22 21:06:00,
2017-03-22 14:08:00,85.1,44.3,29.85,WSW,250,4.5,9.5,24,0.00,,SCT200,0.00,VWS V15.00,2017-03-22 21:08:00,
2017-03-22 14:09:00,85.3,44.4,29.85,WSW,239,6.2,9.5,24,0.00,,SCT200,0.00,VWS V15.00,2017-03-22 21:09:00,
2017-03-22 14:11:00,85.5,44.6,29.85,West,269,4.5,6.2,24,0.00,,SCT200,0.00,VWS V15.00,2017-03-22 21:11:00,
2017-03-22 14:16:00,85.5,44.6,29.85,NNW,329,2.8,6.7,24,0.00,,SCT200,0.00,VWS V15.00,2017-03-22 21:16:00,
2017-03-22 14:21:00,85.5,44.6,29.85,West,265,0.0,0.0,24,0.00,,SCT200,0.00,VWS V15.00,2017-03-22 21:21:00,
2017-03-22 14:26:00,84.9,44.1,29.85,SW,228,0.0,7.3,24,0.00,,SCT200,0.00,VWS V15.00,2017-03-22 21:26:00,
2017-03-22 14:31:00,84.7,44.0,29.85,SSE,168,2.8,7.3,24,0.00,,SCT200,0.00,VWS V15.00,2017-03-22 21:31:00,
2017-03-22 14:36:00,85.5,44.6,29.82,South,191,2.8,5.6,24,0.00,,SCT200,0.00,VWS V15.00,2017-03-22 21:36:00,
2017-03-22 14:41:00,85.6,44.7,29.82,SSW,201,0.0,5.0,24,0.00,,SCT200,0.00,VWS V15.00,2017-03-22 21:41:00,
2017-03-22 14:46:00,85.6,44.7,29.82,SSW,210,7.3,7.8,24,0.00,,SCT200,0.00,VWS V15.00,2017-03-22 21:46:00,
2017-03-22 14:51:00,85.1,45.4,29.82,WSW,257,5.0,6.7,25,0.00,,SCT200,0.00,VWS V15.00,2017-03-22 21:51:00,
2017-03-22 14:56:00,84.0,44.5,29.82,SW,236,4.5,9.5,25,0.00,,SCT200,0.00,VWS V15.00,2017-03-22 21:56:00,
2017-03-22 15:01:00,83.8,44.3,29.82,SW,235,0.0,0.0,25,0.00,,SCT200,0.00,VWS V15.00,2017-03-22 22:01:00,
2017-03-22 15:06:00,83.8,44.3,29.82,NW,321,0.0,0.0,25,0.00,,SCT200,0.00,VWS V15.00,2017-03-22 22:06:00,
2017-03-22 15:11:00,84.4,44.8,29.82,South,178,2.8,4.5,25,0.00,,SCT200,0.00,VWS V15.00,2017-03-22 22:11:00,
2017-03-22 15:16:00,84.9,45.2,29.82,WSW,240,4.5,6.2,25,0.00,,SCT200,0.00,VWS V15.00,2017-03-22 22:16:00,
2017-03-22 15:18:00,84.9,45.2,29.82,West,263,4.5,6.2,25,0.00,,SCT200,0.00,VWS V15.00,2017-03-22 22:18:00,
2017-03-22 15:23:00,84.2,44.6,29.82,WNW,295,6.7,10.1,25,0.00,,SCT200,0.00,VWS V15.00,2017-03-22 22:23:00,
2017-03-22 15:28:00,84.0,44.5,29.82,WSW,256,7.8,7.8,25,0.00,,SCT200,0.00,VWS V15.00,2017-03-22 22:28:00,
2017-03-22 15:33:00,83.8,45.3,29.82,SW,229,3.9,7.3,26,0.00,,SCT200,0.00,VWS V15.00,2017-03-22 22:33:00,
2017-03-22 15:38:00,83.8,45.3,29.79,WSW,255,7.8,10.1,26,0.00,,SCT200,0.00,VWS V15.00,2017-03-22 22:38:00,
2017-03-22 15:43:00,84.0,45.5,29.79,West,272,7.3,10.1,26,0.00,,SCT200,0.00,VWS V15.00,2017-03-22 22:43:00,
2017-03-22 15:48:00,83.1,44.7,29.79,West,266,6.7,9.5,26,0.00,,SCT200,0.00,VWS V15.00,2017-03-22 22:48:00,
2017-03-22 15:53:00,82.6,45.2,29.79,NW,325,6.2,10.9,27,0.00,,SCT200,0.00,VWS V15.00,2017-03-22 22:53:00,
2017-03-22 15:58:00,81.9,44.6,29.79,WNW,285,10.3,10.9,27,0.00,,SCT200,0.00,VWS V15.00,2017-03-22 22:58:00,
2017-03-22 16:03:00,81.5,44.3,29.79,West,261,9.5,10.9,27,0.00,,SCT200,0.00,VWS V15.00,2017-03-22 23:03:00,
2017-03-22 16:08:00,81.1,44.0,29.79,West,277,3.9,10.3,27,0.00,,SCT200,0.00,VWS V15.00,2017-03-22 23:08:00,
2017-03-22 16:13:00,81.3,44.2,29.79,WNW,291,6.7,10.3,27,0.00,,SCT200,0.00,VWS V15.00,2017-03-22 23:13:00,
2017-03-22 16:18:00,81.5,44.3,29.79,West,266,3.9,8.4,27,0.00,,SCT200,0.00,VWS V15.00,2017-03-22 23:18:00,
2017-03-22 16:23:00,81.7,44.5,29.79,SSW,205,5.0,13.1,27,0.00,,SCT200,0.00,VWS V15.00,2017-03-22 23:23:00,
2017-03-22 16:28:00,82.8,45.4,29.79,SW,219,6.7,7.3,27,0.00,,SCT200,0.00,VWS V15.00,2017-03-22 23:28:00,
2017-03-22 16:33:00,83.7,45.2,29.79,West,269,7.3,9.5,26,0.00,,SCT200,0.00,VWS V15.00,2017-03-22 23:33:00,
2017-03-22 16:38:00,83.5,45.0,29.79,South,180,3.4,7.3,26,0.00,,SCT200,0.00,VWS V15.00,2017-03-22 23:38:00,
2017-03-22 16:43:00,83.3,44.9,29.79,South,175,6.7,10.1,26,0.00,,SCT200,0.00,VWS V15.00,2017-03-22 23:43:00,
2017-03-22 16:49:00,83.1,44.7,29.79,WNW,302,4.5,9.5,26,0.00,,SCT200,0.00,VWS V15.00,2017-03-22 23:49:00,
2017-03-22 16:54:00,83.1,44.7,29.79,WSW,253,3.9,9.5,26,0.00,,SCT200,0.00,VWS V15.00,2017-03-22 23:54:00,
2017-03-22 16:59:00,83.7,45.2,29.79,NW,307,6.7,6.7,26,0.00,,SCT200,0.00,VWS V15.00,2017-03-22 23:59:00,
2017-03-22 17:04:00,84.2,44.6,29.79,SSW,212,6.2,6.7,25,0.00,,SCT200,0.00,VWS V15.00,2017-03-23 00:04:00,
2017-03-22 17:09:00,83.8,45.3,29.79,WSW,248,2.8,6.7,26,0.00,,SCT200,0.00,VWS V15.00,2017-03-23 00:09:00,
2017-03-22 17:14:00,83.3,44.9,29.79,South,176,4.5,6.7,26,0.00,,SCT200,0.00,VWS V15.00,2017-03-23 00:14:00,
2017-03-22 17:19:00,83.7,45.2,29.79,WSW,248,6.7,6.7,26,0.00,,SCT200,0.00,VWS V15.00,2017-03-23 00:19:00,
2017-03-22 17:24:00,83.8,45.3,29.76,West,270,3.9,6.7,26,0.00,,SCT200,0.00,VWS V15.00,2017-03-23 00:24:00,
2017-03-22 17:29:00,83.3,44.9,29.76,WSW,244,5.0,10.1,26,0.00,,SCT200,0.00,VWS V15.00,2017-03-23 00:29:00,
2017-03-22 17:34:00,83.3,44.9,29.76,WNW,283,0.0,7.8,26,0.00,,SCT200,0.00,VWS V15.00,2017-03-23 00:34:00,
2017-03-22 17:39:00,83.7,45.2,29.76,South,179,0.0,6.7,26,0.00,,SCT200,0.00,VWS V15.00,2017-03-23 00:39:00,
2017-03-22 17:44:00,83.7,45.2,29.76,SSE,166,0.0,6.2,26,0.00,,SCT200,0.00,VWS V15.00,2017-03-23 00:44:00,
2017-03-22 17:49:00,83.5,45.0,29.76,West,267,0.0,4.5,26,0.00,,SCT200,0.00,VWS V15.00,2017-03-23 00:49:00,
2017-03-22 17:54:00,82.8,44.4,29.76,West,265,3.9,7.3,26,0.00,,SCT200,0.00,VWS V15.00,2017-03-23 00:54:00,
2017-03-22 17:59:00,82.2,44.0,29.76,West,275,0.0,6.2,26,0.00,,SCT200,0.00,VWS V15.00,2017-03-23 00:59:00,
2017-03-22 18:04:00,81.9,43.7,29.76,SW,219,0.0,6.7,26,0.00,,SCT200,0.00,VWS V15.00,2017-03-23 01:04:00,
2017-03-22 18:09:00,81.5,44.3,29.76,WSW,255,0.0,10.3,27,0.00,,SCT200,0.00,VWS V15.00,2017-03-23 01:09:00,
2017-03-22 18:14:00,81.0,43.9,29.76,SSW,206,0.0,7.8,27,0.00,,SCT200,0.00,VWS V15.00,2017-03-23 01:14:00,
2017-03-22 18:19:00,81.1,44.0,29.76,SW,231,3.4,7.3,27,0.00,,SCT200,0.00,VWS V15.00,2017-03-23 01:19:00,
2017-03-22 18:24:00,81.0,43.9,29.76,SW,223,2.8,10.1,27,0.00,,SCT200,0.00,VWS V15.00,2017-03-23 01:24:00,
2017-03-22 18:29:00,80.6,43.6,29.76,WSW,253,3.9,7.8,27,0.00,,SCT200,0.00,VWS V15.00,2017-03-23 01:29:00,
2017-03-22 18:34:00,80.2,43.3,29.76,WSW,254,3.9,7.8,27,0.00,,SCT200,0.00,VWS V15.00,2017-03-23 01:34:00,